Content
SEND FEEDBACK

Daily
Averages
Monthly
Summary
Philippines

OLONGAPO, PHILIPPINES


Home > Asia > Philippines
Elevation: 55 feet     Latitude: 14 48N     Longitude: 120 16E

WEATHER
 
SELECT A DAY
Number of Records: 134,963;   Date Range: 7/31/96 - 7/29/14
 
SHARE

PRINT THIS DATA

[ ← Previous Day ]
WEATHER ALMANAC - OCTOBER 22, 2013
[ Next Day → ]
[ °C ]   °F
Weather ElementAverageHighLow
Temperature82.5 °F89 °F (11:00 am)77 °F (5:00 am)
Dewpoint75.1 °F78.8 °F (4:00 pm)73 °F (8:00 am)
Humidity77.8 %94 % (5:00 am)53 % (11:00 am)
Barometer29.78 in29.83 in (5:00 am)29.74 in (2:00 pm)
Wind Speed10.9 mph149.9 mph (8:00 am)
Weather ElementAverage
Visibility6.9 mi
Wind DirectionESE (117.1 °)

Weather ElementTotal
Precipitation---
Cooling Degree Days18 (Base 65)
Growing Degree Days33 (Base 50)
Averaged from 28 records on October 22, 2013
WEATHER CONDITIONS BREAKOUT
WIND DIRECTION BREAKOUT
WEATHER BY HOUR - OCTOBER 22, 2013
[ °C ]   °F
Local TimeTemperatureDewpointHumidityBarometerVisibilityWind DirectionWind SpeedGust SpeedPrecipitationEventsConditions
2:00 AM79.0 °F74.0 °F82 %29.81 in11.0 miEast (80°)4.5 mphHaze
2:00 AM78.8 °F75.2 °F89 %29.77 in6.2 miEast (80°)4.6 mphMostly Cloudy
5:00 AM77.0 °F75.0 °F93 %29.83 in11.0 miENE (70°)2.2 mphHaze
5:00 AM77.0 °F75.2 °F94 %29.77 in6.2 miVariable1.2 mphPartly Cloudy
6:00 AM77.0 °F73.4 °F89 %29.77 in5.6 miENE (60°)4.6 mphPartly Cloudy
7:00 AM77.0 °F73.4 °F89 %29.77 in6.2 miVariable2.3 mphPartly Cloudy
8:00 AM80.6 °F73.4 °F79 %29.80 in6.2 miVariable2.3 mphPartly Cloudy
8:00 AM73.0 °F29.82 in0.0 miNNE (20°)149.9 mph
9:00 AM82.4 °F73.4 °F74 %29.83 in6.2 miVariable2.3 mphPartly Cloudy
10:00 AM86.0 °F73.4 °F66 %29.83 in6.2 miESE (120°)4.6 mphPartly Cloudy
11:00 AM89.0 °F74.0 °F53 %29.81 in11.0 miSW (230°)8.9 mphHaze
11:00 AM87.8 °F77.0 °F70 %29.80 in6.2 miSW (230°)8.1 mphPartly Cloudy
12:00 PM87.8 °F75.2 °F66 %29.77 in6.2 miSW (230°)9.2 mphPartly Cloudy
1:00 PM87.8 °F75.2 °F66 %29.77 in6.2 miSW (220°)12.7 mphPartly Cloudy
2:00 PM87.8 °F75.2 °F66 %29.74 in6.2 miNW (310°)11.5 mphScattered Clouds
2:00 PM87.0 °F75.0 °F59 %29.75 in11.0 miSW (230°)11.2 mphHaze
3:00 PM86.0 °F77.0 °F74 %29.74 in6.2 miSSW (210°)10.4 mphScattered Clouds
4:00 PM86.0 °F78.8 °F79 %29.74 in6.2 miSSW (210°)11.5 mphScattered Clouds
5:00 PM84.0 °F76.0 °F72 %29.75 inSSW (210°)8.9 mphRainLight Rain Showers
5:00 PM84.2 °F77.0 °F79 %29.74 in6.2 miSSW (210°)9.2 mphRainLight Rain Showers
6:00 PM82.4 °F77.0 °F84 %29.77 in6.2 miWNW (290°)4.6 mphMostly Cloudy
7:00 PM82.4 °F75.2 °F79 %29.77 in6.2 miVariable2.3 mphScattered Clouds
8:00 PM80.0 °F74.0 °F78 %29.80 in9.0 miESE (110°)2.2 mphScattered Clouds
8:00 PM80.6 °F75.2 °F84 %29.80 in6.2 miVariable2.3 mphScattered Clouds
9:00 PM80.6 °F75.2 °F84 %29.80 in6.2 miVariable2.3 mphPartly Cloudy
10:00 PM78.8 °F75.2 °F89 %29.80 in6.2 miVariable2.3 mphScattered Clouds
11:00 PM80.0 °F75.0 °F79 %29.80 in9.0 miEast (80°)4.5 mphHaze
11:00 PM80.6 °F75.2 °F84 %29.80 in6.2 miEast (80°)4.6 mphMostly Cloudy
Hourly data recorded from RPLB, located miles away from Olongapo, Philippines







STORIES FROM OUR PARTNERS